Vertical_Velocity
7 -8 0 6 2 26 -9 -17 11 5 -13 4 -2 -2 -3 -2 1 3 3 2 -1 2 2 2 3 3 1 -0 -3 27 7 10
-5 6 -7 16 32 9 -20 -10 6 2 -1 -1 -1 -3 -1 0 -2 1 1 -0 3 0 -1 -4 -2 -1 1 3 6 -7 -2 14
12 13 9 17 12 3 -19 2 4 1 3 0 -4 -4 4 1 1 2 -1 0 -1 1 1 1 1 5 5 -2 21 -8 19 2
-7 -8 1 17 0 -17 -13 5 4 5 -0 -1 -3 -1 -1 -1 0 1 1 -1 -0 -1 -2 1 -0 1 18 0 -2 1 -2 12
13 -7 -1 4 5 -1 -9 -1 6 2 -2 -0 -1 2 1 1 2 -1 0 0 -2 -1 -1 2 -1 1 5 -2 14 7 -7 4
20 -2 15 -4 -1 -8 -1 -5 5 1 -0 3 -4 2 0 1 -1 4 -4 -1 1 -2 2 -5 2 1 -4 2 2 -1 0 2
-17 -8 -12 45 4 -4 1 -7 6 3 2 2 -2 4 1 -0 -1 -1 -3 3 2 2 0 -2 -7 4 -4 -2 7 1 2 1
-0 46 26 37 0 -9 -0 -2 0 0 8 -6 2 -1 -2 -4 0 -2 -1 3 4 1 3 -1 -2 -6 7 -6 23 -2 0 -4
-2 -2 3 56 9 -1 -3 2 1 -2 5 3 2 -1 0 2 -1 -1 1 3 3 1 3 -2 -7 28 9 -7 -12 -1 -2 0
-7 -5 4 48 0 -2 -1 1 -1 5 6 4 2 -3 -1 3 -2 -1 1 2 2 -2 0 0 -9 -2 -3 11 -0 3 -4 1
3 1 -7 4 25 2 -5 -1 -3 8 3 4 2 -3 1 1 1 -1 -0 0 -0 -1 -1 1 -2 5 3 24 -4 1 8 4
-1 1 -2 -8 -3 5 5 1 7 8 4 -1 1 0 1 1 0 1 -0 1 2 0 0 -0 4 1 -3 -5 0 -5 -4 -4
-1 5 1 1 7 -13 -0 8 6 15 -1 7 3 3 1 -0 -1 1 -0 1 1 1 -0 -0 1 -1 0 -7 -1 2 7 14
0 1 1 2 0 2 2 1 6 15 -4 4 -1 8 1 -2 -2 -1 -0 2 0 0 -0 -2 -2 2 2 9 7 8 -9 -1
-1 -0 1 1 1 0 -1 5 6 1 -7 4 3 5 -1 -2 -0 -4 -1 -2 -0 -1 -7 -1 -4 -4 -1 -1 -1 2 5 12
-0 -2 1 -1 0 -0 1 -0 1 6 10 8 5 6 1 2 -1 0 1 2 0 -2 0 1 -1 -0 -2 -0 2 -4 10 -8
-5 -1 6 -1 3 -3 1 -2 6 4 4 4 5 5 1 1 0 -1 1 3 -0 -1 -1 -1 1 0 1 1 0 -1 -0 -0
-3 -5 2 6 5 -0 2 0 6 2 -2 0 1 2 5 2 1 1 2 -1 1 1 -1 -0 0 2 3 3 2 2 3 1
-9 3 0 0 9 5 9 6 7 -1 2 1 0 0 -0 1 1 -1 6 -1 -1 -4 2 2 0 0 1 1 0 -3 -4 -4
Height
3038 3039 3043 3048 3054 3054 3051 3056 3061 3065 3067 3071 3072 3073 3072 3071 3070 3070 3070 3069 3070 3073 3075 3077 3079 3082 3084 3087 3088 3092 3097 3104
3032 3034 3038 3044 3048 3046 3046 3051 3057 3059 3062 3066 3068 3068 3067 3066 3064 3064 3063 3063 3065 3067 3069 3073 3075 3078 3082 3083 3086 3089 3097 3101
3025 3030 3033 3037 3039 3040 3042 3046 3051 3054 3059 3062 3063 3063 3063 3061 3060 3058 3057 3057 3059 3062 3065 3069 3072 3072 3077 3080 3083 3086 3092 3097
3020 3024 3027 3030 3033 3034 3036 3041 3046 3050 3054 3057 3058 3058 3057 3057 3056 3053 3052 3052 3055 3058 3061 3064 3066 3067 3070 3075 3078 3081 3087 3093
3015 3019 3023 3023 3028 3029 3031 3036 3041 3046 3049 3052 3053 3054 3053 3053 3052 3049 3048 3048 3051 3054 3056 3059 3060 3063 3065 3069 3074 3078 3083 3089
3009 3014 3019 3018 3021 3025 3027 3031 3036 3041 3044 3047 3049 3050 3050 3049 3048 3045 3044 3046 3049 3050 3052 3053 3053 3054 3059 3064 3069 3075 3078 3085
3004 3009 3013 3014 3015 3018 3022 3025 3031 3036 3039 3042 3044 3045 3046 3045 3043 3040 3040 3043 3045 3047 3046 3046 3046 3046 3051 3059 3065 3071 3075 3081
2991 3001 3010 3011 3007 3011 3017 3021 3026 3031 3034 3036 3040 3040 3041 3040 3039 3037 3037 3040 3042 3043 3043 3042 3040 3042 3049 3055 3060 3066 3071 3077
2990 2991 2995 3001 3001 3004 3010 3015 3021 3026 3029 3032 3035 3036 3038 3038 3036 3035 3035 3037 3039 3039 3039 3039 3039 3041 3047 3052 3056 3063 3069 3074
2989 2990 2992 2998 2998 2999 3005 3010 3014 3020 3024 3027 3031 3032 3034 3034 3033 3032 3032 3034 3035 3036 3036 3037 3038 3040 3043 3049 3053 3060 3066 3072
2985 2987 2987 2990 2993 2993 2999 3002 3008 3013 3019 3023 3026 3028 3030 3031 3030 3030 3030 3031 3032 3032 3033 3035 3037 3039 3042 3046 3050 3057 3062 3067
2981 2983 2984 2986 2990 2993 2997 2998 3004 3008 3013 3018 3022 3025 3027 3028 3028 3028 3028 3028 3029 3030 3030 3032 3035 3038 3042 3046 3050 3055 3059 3063
2977 2980 2981 2984 2985 2988 2992 2995 2999 3005 3007 3013 3018 3021 3023 3025 3025 3025 3026 3027 3027 3028 3028 3029 3031 3036 3040 3043 3048 3053 3056 3059
2972 2975 2977 2980 2982 2986 2988 2990 2995 3002 3003 3009 3014 3017 3020 3022 3023 3023 3024 3025 3026 3026 3027 3028 3029 3033 3038 3041 3045 3050 3052 3056
2969 2971 2974 2975 2978 2982 2985 2988 2991 2995 2999 3006 3009 3012 3014 3017 3019 3020 3022 3023 3023 3024 3025 3026 3027 3031 3035 3038 3042 3046 3049 3052
2968 2968 2971 2972 2975 2977 2981 2986 2988 2991 2996 3000 3004 3007 3010 3014 3015 3017 3020 3021 3022 3024 3024 3026 3028 3030 3033 3036 3039 3042 3044 3049
2967 2966 2967 2970 2972 2974 2978 2982 2985 2987 2990 2995 2999 3003 3007 3009 3011 3013 3016 3019 3020 3022 3023 3024 3026 3028 3031 3034 3036 3038 3041 3044
2965 2963 2964 2967 2969 2973 2974 2979 2981 2983 2986 2990 2994 2997 3000 3004 3007 3008 3010 3014 3016 3018 3020 3022 3024 3026 3029 3031 3034 3036 3038 3040
2962 2961 2962 2965 2966 2969 2971 2974 2977 2980 2983 2985 2989 2992 2995 2998 3001 3004 3005 3007 3010 3013 3015 3017 3019 3021 3024 3027 3028 3030 3032 3034